Location: Unspecified
(0.0000°N, 0.0000°E)
Time: 03:49:05
(UTC+00:00)

MERIDIAN 6 - Visible Passes

Search period start: 31 May 2023 00:00
Search period end: 10 June 2023 00:00
Orbit: 1921 x 38430 km, 65.3° (Epoch: 29 May)

Date Brightness Start Highest point End Pass type
(mag) Time Alt. Az. Time Alt. Az. Time Alt. Az.
31 May ? 12:54:06 10° ENE 15:38:35 19° NNE 18:41:40 10° NNE visible
01 Jun ? 12:49:54 10° ENE 15:34:14 19° NNE 18:37:03 10° NNE visible
02 Jun ? 12:45:41 10° ENE 15:29:52 19° NNE 18:32:26 10° NNE visible
03 Jun ? 12:41:29 10° ENE 15:25:30 19° NNE 18:27:49 10° NNE visible
04 Jun ? 12:37:16 10° ENE 15:21:09 19° NNE 18:23:12 10° NNE visible
05 Jun ? 12:33:04 10° ENE 15:16:47 19° NNE 18:18:35 10° NNE visible
06 Jun ? 12:28:52 10° ENE 15:12:26 19° NNE 18:13:59 10° NNE visible
07 Jun ? 12:24:39 10° ENE 15:08:04 19° NNE 18:09:22 10° NNE visible
08 Jun ? 12:20:27 10° ENE 15:03:42 19° NNE 18:04:45 10° NNE visible
09 Jun ? 12:16:14 10° ENE 14:59:21 19° NNE 18:00:08 10° NNE visible
